Weather History for Custer, SD

Change the Weather History Date:

Sunday, May 26, 2013

  Actual Average Record
Temperature  
Mean Temperature 58 °F 51 °F  
Max Temperature 70 °F 63 °F 88 °F (1972)
Min Temperature 45 °F 39 °F 23 °F (1950)
Degree Days  
Heating Degree Days 7 14  
Month to date heating degree days 401 453  
Since 1 July heating degree days 8005 8103  
Cooling Degree Days 0 0  
Month to date cooling degree days 2 0  
Year to date cooling degree days 2 0  
Growing Degree Days 8 (Base 50)    
Moisture  
Dew Point 50 °F    
Average Humidity 72    
Maximum Humidity 100    
Minimum Humidity 44    
Precipitation  
Precipitation 0.00 in 0.10 in 1.58 in (1963)
Month to date precipitation 0.87 2.56  
Year to date precipitation 6.17 6.55  
Sea Level Pressure  
Sea Level Pressure 29.88 in    
Wind  
Wind Speed 8 mph (ENE)    
Max Wind Speed 17 mph    
Max Gust Speed 24 mph    
Visibility 7 miles    
Events Fog    
T = Trace of Precipitation, MM = Missing Value Source: NWS Daily Summary

Daily Weather History Graph

Daily Weather History Graph

Search for Another Location

Airport:

Trip Planner

Search our weather history database for the weather conditions in past years. The results will help you decide how hot, cold, wet, or windy it might be!

Date:

Astronomy

May. 26, 2013 Rise Set
Actual Time 5:19 AM MDT 8:24 PM MDT
Civil Twilight 4:44 AM MDT 8:59 PM MDT
Nautical Twilight 4:00 AM MDT 9:43 PM MDT
Astronomical Twilight 3:07 AM MDT 10:37 PM MDT
Moon 10:13 PM MDT (5/26) 6:51 AM MDT (5/26)
Length of Visible Light 16h 14m
Length of Day
15h 05m
Waning Gibbous, 96% of the Moon is Illuminated
May 26
Waning Gibbous
May 31
Last Quarter
Jun 8
New
Jun 16
First Quarter
Jun 23
Full

Hourly Weather History & Observations

Time (MDT) Temp. Windchill Dew Point Humidity Pressure Visibility Wind Dir Wind Speed Gust Speed Precip Events Conditions
12:53 AM 53.1 °F - 51.1 °F 93% 29.77 in 10.0 mi NNW 3.5 mph - N/A   Clear
1:53 AM 52.0 °F - 50.0 °F 93% 29.74 in 7.0 mi NNW 3.5 mph - N/A   Clear
2:53 AM 50.0 °F - 46.9 °F 89% 29.75 in 7.0 mi NNW 3.5 mph - N/A   Clear
3:53 AM 48.9 °F - 48.0 °F 97% 29.77 in 6.0 mi NW 3.5 mph - N/A   Clear
4:53 AM 48.9 °F - 46.9 °F 93% 29.79 in 8.0 mi Calm Calm - N/A   Clear
5:35 AM 46.4 °F 41.5 °F 44.6 °F 93% 29.95 in 2.0 mi NNE 10.4 mph - N/A   Partly Cloudy
5:37 AM 48.2 °F - 46.4 °F 93% 29.95 in 0.5 mi NE 8.1 mph - N/A Fog Fog
5:45 AM 50.0 °F - 48.2 °F 94% 29.96 in 0.2 mi NE 9.2 mph - N/A Fog Fog
5:53 AM 51.1 °F - 50.0 °F 96% 29.81 in 0.2 mi NNE 10.4 mph - N/A Fog Fog
6:17 AM 51.8 °F - 50.0 °F 94% 29.98 in 1.2 mi North 4.6 mph - N/A   Mostly Cloudy
6:19 AM 51.8 °F - 50.0 °F 94% 29.99 in 3.0 mi North 4.6 mph - N/A   Mostly Cloudy
6:28 AM 51.8 °F - 50.0 °F 94% 29.99 in 7.0 mi NNE 8.1 mph - N/A   Scattered Clouds
6:53 AM 54.0 °F - 52.0 °F 93% 29.82 in 5.0 mi NNE 13.8 mph 19.6 mph N/A   Mostly Cloudy
7:03 AM 53.6 °F - 53.6 °F 100% 29.99 in 4.0 mi NE 12.7 mph 19.6 mph N/A   Overcast
7:53 AM 52.0 °F - 50.0 °F 93% 29.85 in 10.0 mi NE 12.7 mph 21.9 mph N/A   Overcast
8:53 AM 53.1 °F - 48.9 °F 86% 29.87 in 10.0 mi ENE 16.1 mph - N/A   Overcast
9:20 AM 51.8 °F - 48.2 °F 88% 30.02 in 8.0 mi ENE 15.0 mph - N/A   Overcast
9:51 AM 53.6 °F - 48.2 °F 82% 30.02 in 10.0 mi NE 10.4 mph - N/A   Overcast
9:53 AM 54.0 °F - 48.0 °F 80% 29.87 in 10.0 mi NE 11.5 mph - N/A   Overcast
10:53 AM 57.0 °F - 50.0 °F 77% 29.86 in 10.0 mi ENE 11.5 mph - N/A   Overcast
11:46 AM 60.8 °F - 51.8 °F 72% 30.01 in 10.0 mi NE 12.7 mph - N/A   Scattered Clouds
11:53 AM 63.0 °F - 51.1 °F 65% 29.85 in 10.0 mi ENE 9.2 mph - N/A   Partly Cloudy
12:53 PM 64.0 °F - 52.0 °F 65% 29.86 in 10.0 mi NE 6.9 mph - N/A   Partly Cloudy
1:53 PM 66.9 °F - 50.0 °F 54% 29.83 in 10.0 mi East 9.2 mph - N/A   Clear
2:53 PM 69.1 °F - 48.0 °F 47% 29.82 in 10.0 mi ENE 8.1 mph - N/A   Clear
3:53 PM 69.1 °F - 46.9 °F 45% 29.82 in 10.0 mi ESE 8.1 mph - N/A   Clear
4:53 PM 69.1 °F - 46.0 °F 44% 29.81 in 10.0 mi ESE 10.4 mph 16.1 mph N/A   Clear
5:53 PM 64.9 °F - 50.0 °F 58% 29.80 in 10.0 mi East 8.1 mph - N/A   Clear
6:53 PM 60.1 °F - 53.1 °F 78% 29.81 in 10.0 mi ENE 9.2 mph - N/A   Mostly Cloudy
7:10 PM 60.8 °F - 53.6 °F 77% 29.95 in 10.0 mi East 10.4 mph - N/A   Mostly Cloudy
7:38 PM 57.2 °F - 51.8 °F 82% 29.96 in 10.0 mi ESE 6.9 mph - N/A   Mostly Cloudy
7:53 PM 55.9 °F - 52.0 °F 87% 29.86 in 10.0 mi ESE 5.8 mph - N/A   Overcast
8:00 PM 55.4 °F - 51.8 °F 88% 29.98 in 10.0 mi East 9.2 mph - N/A   Overcast
8:35 PM 55.4 °F - 51.8 °F 88% 29.97 in 10.0 mi NE 4.6 mph - N/A   Overcast
8:53 PM 55.0 °F - 51.1 °F 86% 29.84 in 10.0 mi NE 6.9 mph - N/A   Mostly Cloudy
9:29 PM 53.6 °F - 51.8 °F 94% 29.97 in 8.0 mi ESE 5.8 mph - N/A   Mostly Cloudy
9:40 PM 53.6 °F - 51.8 °F 94% 29.96 in 7.0 mi Calm Calm - N/A   Mostly Cloudy
9:53 PM 55.0 °F - 52.0 °F 89% 29.82 in 8.0 mi ENE 3.5 mph - N/A   Overcast
10:30 PM 55.4 °F - 53.6 °F 94% 29.92 in 7.0 mi ENE 5.8 mph - N/A   Overcast
10:53 PM 55.0 °F - 53.1 °F 93% 29.78 in 7.0 mi NE 3.5 mph - N/A   Overcast
11:46 PM 55.4 °F - 53.6 °F 94% 29.95 in 2.5 mi ESE 5.8 mph - N/A   Overcast
11:53 PM 55.0 °F - 53.1 °F 93% 29.80 in 1.5 mi SE 5.8 mph - N/A   Overcast